AMOS-3

Last updated on Oct. 26, 2020, 5:52 a.m. UTC

1 32794U 08022A   20299.83979593 -.00000048  00000-0  00000-0 0  9995
2 32794   0.0102 214.1713 0002456 352.9862 125.7235  1.00272462 61704
UTC
Height (km)
Latitude
Longitude
Inclination
Orbital Period
UTC large
Height (km)
Speed (km/s)
/
Latitude / Longitude
Inclination (degrees)
Orbital Period (minutes)
Azimuth
Elevation
Range (km)
Doppler Factor
iOS Compass Heading
iOS Angle

Next 30 passes for location: Hong Kong

Rise time Rise Azimuth (degrees) Set time Set Azimuth (degrees) Duration Max altitude (degrees)

No matching passes for this satellites